POE423 CYYZ-CYWG

Flight info

Callsign POE423
Flight time 2h 8m
Altitude 36000
Route AVSEP7 NUGOP DCT DUTEL Q917 SSM DCT JEORG/N0378F160 T810 GABOV DCT GOVIT NORAK5
Aircraft E195/M-SDE3GILORVW/S

Departure

Time 2026-05-08 17:15
Airport Toronto Pearson International Airport (CYYZ)

Arrival

Time 2026-05-08 19:23
Airport Winnipeg / James Armstrong Richardson International Airport (CYWG)
Time Latitude Longitude Altitude Speed Heading
2026-05-08 16:52 43.68505 -79.62292 564 ft 0 kts 318°
2026-05-08 17:06 43.68502 -79.62288 564 ft 2 kts 317°
2026-05-08 17:06 43.68490 -79.62273 568 ft 2 kts 317°
2026-05-08 17:06 43.68478 -79.62257 565 ft 2 kts 316°
2026-05-08 17:06 43.68466 -79.62241 567 ft 2 kts 312°
2026-05-08 17:07 43.68455 -79.62225 563 ft 2 kts 291°
2026-05-08 17:07 43.68454 -79.62203 573 ft 2 kts 236°
2026-05-08 17:07 43.68457 -79.62196 567 ft 0 kts 225°
2026-05-08 17:08 43.68450 -79.62206 565 ft 6 kts 225°
2026-05-08 17:08 43.68396 -79.62283 566 ft 15 kts 226°
2026-05-08 17:08 43.68313 -79.62388 568 ft 17 kts 213°
2026-05-08 17:09 43.68276 -79.62469 565 ft 9 kts 281°
2026-05-08 17:09 43.68325 -79.62553 566 ft 15 kts 315°
2026-05-08 17:09 43.68421 -79.62684 566 ft 24 kts 315°
2026-05-08 17:09 43.68539 -79.62836 562 ft 23 kts 317°
2026-05-08 17:10 43.68662 -79.62990 561 ft 24 kts 317°
2026-05-08 17:10 43.68762 -79.63124 563 ft 16 kts 315°
2026-05-08 17:10 43.68841 -79.63233 567 ft 17 kts 315°
2026-05-08 17:10 43.68926 -79.63334 567 ft 15 kts 321°
2026-05-08 17:11 43.69008 -79.63432 568 ft 16 kts 317°
2026-05-08 17:11 43.69052 -79.63488 565 ft 5 kts 318°
2026-05-08 17:11 43.69084 -79.63520 565 ft 6 kts 334°
2026-05-08 17:11 43.69120 -79.63519 569 ft 4 kts 34°
2026-05-08 17:12 43.69151 -79.63475 566 ft 9 kts 46°
2026-05-08 17:12 43.69229 -79.63421 565 ft 16 kts
2026-05-08 17:12 43.69307 -79.63426 563 ft 0 kts 359°
2026-05-08 17:12 43.69314 -79.63426 565 ft 3 kts 359°
2026-05-08 17:13 43.69346 -79.63427 562 ft 6 kts 358°
2026-05-08 17:13 43.69384 -79.63457 557 ft 7 kts 316°
2026-05-08 17:13 43.69387 -79.63532 558 ft 9 kts 241°
2026-05-08 17:13 43.69376 -79.63555 562 ft 0 kts 233°
2026-05-08 17:14 43.69372 -79.63562 557 ft 9 kts 233°
2026-05-08 17:14 43.69191 -79.63831 564 ft 66 kts 226°
2026-05-08 17:14 43.68739 -79.64469 569 ft 119 kts 225°
2026-05-08 17:15 43.68073 -79.65423 598 ft 157 kts 230°
2026-05-08 17:15 43.67400 -79.66525 1206 ft 151 kts 223°
2026-05-08 17:15 43.66669 -79.67651 1689 ft 168 kts 229°
2026-05-08 17:15 43.65919 -79.69044 2126 ft 190 kts 240°
2026-05-08 17:16 43.65420 -79.70743 2970 ft 193 kts 256°
2026-05-08 17:16 43.65266 -79.72648 3676 ft 213 kts 271°
2026-05-08 17:16 43.65549 -79.74731 4496 ft 226 kts 291°
2026-05-08 17:16 43.66268 -79.76716 5237 ft 247 kts 300°
2026-05-08 17:17 43.67254 -79.78615 6250 ft 235 kts 312°
2026-05-08 17:17 43.68453 -79.80192 6824 ft 249 kts 318°
2026-05-08 17:17 43.69922 -79.81638 6961 ft 272 kts 324°
2026-05-08 17:17 43.71403 -79.83137 7218 ft 262 kts 319°
2026-05-08 17:18 43.72725 -79.84849 7713 ft 261 kts 310°
2026-05-08 17:18 43.73880 -79.86790 8201 ft 262 kts 307°
2026-05-08 17:18 43.75099 -79.88676 8667 ft 265 kts 314°
2026-05-08 17:18 43.76460 -79.90414 9154 ft 268 kts 316°
2026-05-08 17:19 43.77855 -79.92140 9655 ft 270 kts 316°
2026-05-08 17:19 43.79272 -79.93868 10118 ft 274 kts 316°
2026-05-08 17:19 43.80702 -79.95606 10267 ft 284 kts 316°
2026-05-08 17:19 43.82228 -79.97443 10494 ft 294 kts 317°
2026-05-08 17:20 43.83785 -79.99296 10970 ft 295 kts 317°
2026-05-08 17:20 43.85343 -80.01138 11508 ft 295 kts 317°
2026-05-08 17:20 43.86904 -80.02979 12033 ft 295 kts 317°
2026-05-08 17:20 43.88450 -80.04859 12577 ft 295 kts 315°
2026-05-08 17:21 43.89982 -80.06747 13151 ft 295 kts 315°
2026-05-08 17:21 43.91514 -80.08647 13703 ft 295 kts 315°
2026-05-08 17:21 43.92950 -80.10674 14194 ft 294 kts 309°
2026-05-08 17:21 43.94276 -80.12832 14675 ft 295 kts 307°
2026-05-08 17:22 43.95559 -80.15021 15151 ft 296 kts 306°
2026-05-08 17:22 43.96815 -80.17288 15636 ft 297 kts 305°
2026-05-08 17:22 43.98065 -80.19577 16128 ft 298 kts 304°
2026-05-08 17:22 43.99309 -80.21876 16658 ft 299 kts 304°
2026-05-08 17:23 44.00565 -80.24188 17190 ft 300 kts 304°
2026-05-08 17:23 44.01824 -80.26516 17669 ft 303 kts 304°
2026-05-08 17:23 44.03098 -80.28864 18207 ft 305 kts 304°
2026-05-08 17:23 44.04382 -80.31217 18679 ft 306 kts 304°
2026-05-08 17:24 44.05659 -80.33570 19143 ft 308 kts 304°
2026-05-08 17:24 44.06938 -80.35931 19617 ft 309 kts 304°
2026-05-08 17:24 44.08233 -80.38330 19289 ft 314 kts 306°
2026-05-08 17:24 44.09577 -80.40841 19216 ft 333 kts 307°
2026-05-08 17:25 44.11007 -80.43471 19211 ft 349 kts 306°
2026-05-08 17:25 44.12469 -80.46221 19237 ft 363 kts 306°
2026-05-08 17:25 44.14043 -80.49055 19275 ft 376 kts 311°
2026-05-08 17:25 44.15830 -80.51700 19468 ft 382 kts 313°
2026-05-08 17:26 44.17633 -80.54428 19805 ft 385 kts 313°
2026-05-08 17:26 44.19477 -80.57151 20122 ft 387 kts 313°
2026-05-08 17:26 44.21323 -80.59898 20426 ft 390 kts 313°
2026-05-08 17:26 44.23186 -80.62667 20717 ft 392 kts 313°
2026-05-08 17:27 44.25051 -80.65443 21004 ft 394 kts 313°
2026-05-08 17:27 44.26929 -80.68249 21275 ft 396 kts 313°
2026-05-08 17:27 44.28814 -80.71060 21528 ft 398 kts 313°
2026-05-08 17:27 44.30706 -80.73894 21773 ft 400 kts 313°
2026-05-08 17:28 44.32608 -80.76738 22008 ft 402 kts 313°
2026-05-08 17:28 44.34514 -80.79600 22230 ft 403 kts 313°
2026-05-08 17:28 44.36404 -80.82435 22439 ft 405 kts 313°
2026-05-08 17:28 44.38323 -80.85318 22647 ft 406 kts 313°
2026-05-08 17:29 44.40254 -80.88224 22842 ft 408 kts 312°
2026-05-08 17:29 44.42190 -80.91136 23028 ft 409 kts 313°
2026-05-08 17:29 44.44130 -80.94063 23214 ft 411 kts 312°
2026-05-08 17:29 44.46077 -80.96996 23384 ft 412 kts 312°
2026-05-08 17:30 44.48029 -80.99949 23544 ft 414 kts 312°
2026-05-08 17:30 44.49959 -81.02863 23697 ft 415 kts 312°
2026-05-08 17:30 44.51920 -81.05836 23841 ft 416 kts 312°
2026-05-08 17:30 44.53891 -81.08818 23981 ft 417 kts 312°
2026-05-08 17:31 44.55858 -81.11805 24119 ft 418 kts 312°
2026-05-08 17:31 44.57835 -81.14805 24249 ft 419 kts 312°
2026-05-08 17:31 44.59817 -81.17818 24377 ft 420 kts 312°
2026-05-08 17:31 44.61798 -81.20836 24500 ft 421 kts 312°
2026-05-08 17:32 44.63784 -81.23857 24616 ft 422 kts 312°
2026-05-08 17:32 44.65746 -81.26853 24725 ft 423 kts 312°
2026-05-08 17:32 44.67743 -81.29897 24831 ft 424 kts 312°
2026-05-08 17:32 44.69738 -81.32951 24931 ft 425 kts 312°
2026-05-08 17:33 44.71739 -81.36010 25025 ft 425 kts 312°
2026-05-08 17:33 44.73741 -81.39077 25117 ft 426 kts 312°
2026-05-08 17:33 44.75749 -81.42157 25206 ft 427 kts 312°
2026-05-08 17:33 44.77756 -81.45235 25292 ft 428 kts 312°
2026-05-08 17:34 44.79765 -81.48327 25375 ft 428 kts 312°
2026-05-08 17:34 44.81778 -81.51420 25449 ft 429 kts 312°
2026-05-08 17:34 44.83765 -81.54484 25521 ft 429 kts 312°
2026-05-08 17:34 44.85778 -81.57586 25595 ft 430 kts 312°
2026-05-08 17:35 44.87797 -81.60703 25670 ft 431 kts 312°
2026-05-08 17:35 44.89818 -81.63829 25747 ft 431 kts 312°
2026-05-08 17:35 44.91844 -81.66959 25817 ft 432 kts 312°
2026-05-08 17:35 44.93866 -81.70096 25883 ft 432 kts 312°
2026-05-08 17:36 44.95893 -81.73234 25948 ft 433 kts 312°
2026-05-08 17:36 44.97922 -81.76386 26010 ft 434 kts 312°
2026-05-08 17:36 44.99951 -81.79543 26071 ft 434 kts 312°
2026-05-08 17:36 45.01981 -81.82695 26129 ft 435 kts 312°
2026-05-08 17:37 45.03984 -81.85819 26186 ft 435 kts 312°
2026-05-08 17:37 45.06019 -81.88987 26240 ft 435 kts 311°
2026-05-08 17:37 45.08055 -81.92165 26294 ft 436 kts 312°
2026-05-08 17:37 45.10090 -81.95348 26346 ft 436 kts 311°
2026-05-08 17:38 45.12131 -81.98535 26395 ft 437 kts 311°
2026-05-08 17:38 45.14165 -82.01726 26444 ft 437 kts 311°
2026-05-08 17:38 45.16208 -82.04924 26491 ft 438 kts 311°
2026-05-08 17:38 45.18246 -82.08125 26537 ft 438 kts 311°
2026-05-08 17:39 45.20289 -82.11337 26578 ft 438 kts 311°
2026-05-08 17:39 45.22303 -82.14501 26615 ft 439 kts 311°
2026-05-08 17:39 45.24344 -82.17721 26652 ft 439 kts 311°
2026-05-08 17:39 45.26391 -82.20943 26694 ft 439 kts 311°
2026-05-08 17:40 45.28431 -82.24167 26735 ft 440 kts 311°
2026-05-08 17:40 45.30474 -82.27397 26772 ft 440 kts 311°
2026-05-08 17:40 45.32520 -82.30631 26803 ft 440 kts 311°
2026-05-08 17:40 45.34566 -82.33877 26834 ft 440 kts 311°
2026-05-08 17:41 45.36611 -82.37117 26865 ft 441 kts 311°
2026-05-08 17:41 45.38641 -82.40268 26891 ft 441 kts 311°
2026-05-08 17:41 45.40566 -82.43662 26911 ft 441 kts 307°
2026-05-08 17:41 45.42494 -82.47058 26935 ft 441 kts 309°
2026-05-08 17:42 45.44386 -82.50494 26958 ft 441 kts 308°
2026-05-08 17:42 45.46295 -82.53926 26983 ft 442 kts 308°
2026-05-08 17:42 45.48184 -82.57371 27008 ft 442 kts 308°
2026-05-08 17:42 45.50007 -82.60680 27035 ft 439 kts 308°
2026-05-08 17:43 45.51896 -82.64123 27132 ft 442 kts 308°
2026-05-08 17:43 45.53795 -82.67584 27305 ft 444 kts 307°
2026-05-08 17:43 45.55702 -82.71057 27472 ft 445 kts 308°
2026-05-08 17:43 45.57582 -82.74496 27655 ft 446 kts 308°
2026-05-08 17:44 45.59488 -82.77973 27799 ft 448 kts 307°
2026-05-08 17:44 45.61399 -82.81470 27943 ft 449 kts 308°
2026-05-08 17:44 45.63320 -82.84992 28084 ft 450 kts 307°
2026-05-08 17:44 45.65248 -82.88523 28218 ft 452 kts 307°
2026-05-08 17:45 45.67181 -82.92079 28344 ft 453 kts 307°
2026-05-08 17:45 45.69119 -82.95637 28463 ft 454 kts 307°
2026-05-08 17:45 45.71056 -82.99202 28584 ft 455 kts 307°
2026-05-08 17:45 45.72998 -83.02784 28698 ft 456 kts 307°
2026-05-08 17:46 45.74907 -83.06302 28801 ft 457 kts 307°
2026-05-08 17:46 45.76825 -83.09852 28902 ft 458 kts 307°
2026-05-08 17:46 45.80734 -83.17085 29100 ft 459 kts 307°
2026-05-08 17:47 45.82687 -83.20711 29209 ft 460 kts 307°
2026-05-08 17:47 45.84648 -83.24347 29310 ft 461 kts 307°
2026-05-08 17:47 45.87912 -83.30418 29466 ft 463 kts 307°
2026-05-08 17:48 45.90541 -83.35321 29579 ft 464 kts 307°
2026-05-08 17:48 45.92482 -83.38950 29660 ft 465 kts 307°
2026-05-08 17:48 45.96422 -83.46318 29809 ft 466 kts 307°
2026-05-08 17:49 46.00387 -83.53749 29811 ft 470 kts 307°
2026-05-08 17:49 46.04379 -83.61257 29821 ft 474 kts 307°
2026-05-08 17:50 46.08364 -83.68775 29876 ft 476 kts 307°
2026-05-08 17:50 46.12375 -83.76360 30008 ft 476 kts 307°
2026-05-08 17:51 46.16383 -83.83954 30130 ft 476 kts 307°
2026-05-08 17:51 46.20390 -83.91568 30244 ft 476 kts 307°
2026-05-08 17:52 46.24383 -83.99180 30132 ft 472 kts 307°
2026-05-08 17:53 46.30176 -84.10257 30110 ft 464 kts 307°
2026-05-08 17:53 46.34083 -84.17757 30027 ft 470 kts 306°
2026-05-08 17:54 46.38033 -84.25361 30001 ft 472 kts 306°
2026-05-08 17:54 46.41834 -84.33083 30000 ft 471 kts 300°
2026-05-08 17:55 46.45110 -84.41233 30000 ft 471 kts 299°
2026-05-08 17:55 46.48374 -84.49468 30005 ft 471 kts 299°
2026-05-08 17:56 46.51633 -84.57707 29998 ft 471 kts 300°
2026-05-08 17:56 46.54891 -84.65959 30005 ft 471 kts 299°
2026-05-08 17:57 46.58142 -84.74220 29999 ft 471 kts 299°
2026-05-08 17:57 46.61363 -84.82434 30004 ft 471 kts 299°
2026-05-08 17:58 46.64600 -84.90713 30001 ft 471 kts 299°
2026-05-08 17:58 46.67837 -84.99008 30002 ft 471 kts 299°
2026-05-08 17:59 46.71064 -85.07301 30001 ft 471 kts 299°
2026-05-08 17:59 46.74254 -85.15567 30002 ft 471 kts 299°
2026-05-08 18:00 46.77443 -85.23909 30002 ft 471 kts 299°
2026-05-08 18:00 46.82204 -85.36442 30001 ft 471 kts 298°
2026-05-08 18:01 46.85373 -85.44807 30002 ft 471 kts 298°
2026-05-08 18:01 46.88466 -85.53000 30001 ft 471 kts 298°
2026-05-08 18:02 46.91112 -85.60028 30002 ft 471 kts 298°
2026-05-08 18:02 46.94773 -85.69792 30001 ft 471 kts 298°
2026-05-08 18:03 46.97917 -85.78198 30002 ft 471 kts 298°
2026-05-08 18:03 47.01035 -85.86558 30002 ft 471 kts 298°
2026-05-08 18:04 47.04169 -85.94986 30002 ft 471 kts 298°
2026-05-08 18:04 47.07293 -86.03419 30002 ft 471 kts 298°
2026-05-08 18:05 47.10413 -86.11871 30002 ft 471 kts 298°
2026-05-08 18:05 47.13524 -86.20325 30002 ft 471 kts 298°
2026-05-08 18:06 47.16602 -86.28708 30003 ft 470 kts 298°
2026-05-08 18:06 47.19716 -86.37216 30000 ft 478 kts 298°
2026-05-08 18:07 47.22893 -86.45923 30005 ft 485 kts 298°
2026-05-08 18:07 47.24448 -86.50210 29981 ft 465 kts 298°
2026-05-08 18:07 47.25950 -86.54338 29948 ft 452 kts 297°
2026-05-08 18:08 47.28910 -86.62510 29933 ft 458 kts 297°
2026-05-08 18:08 47.31918 -86.70840 29944 ft 463 kts 297°
2026-05-08 18:09 47.34952 -86.79266 29958 ft 468 kts 297°
2026-05-08 18:09 47.38014 -86.87790 29971 ft 472 kts 297°
2026-05-08 18:10 47.41087 -86.96379 29982 ft 475 kts 297°
2026-05-08 18:10 47.44147 -87.04961 30084 ft 475 kts 297°
2026-05-08 18:11 47.47220 -87.13612 30198 ft 475 kts 297°
2026-05-08 18:11 47.50288 -87.22274 30303 ft 475 kts 297°
2026-05-08 18:12 47.53349 -87.30939 30398 ft 475 kts 297°
2026-05-08 18:12 47.56383 -87.39556 30490 ft 475 kts 297°
2026-05-08 18:13 47.59431 -87.48243 30577 ft 475 kts 297°
2026-05-08 18:13 47.62473 -87.56948 30655 ft 475 kts 297°
2026-05-08 18:14 47.65503 -87.65646 30741 ft 475 kts 297°
2026-05-08 18:14 47.68532 -87.74368 30825 ft 475 kts 297°
2026-05-08 18:15 47.71494 -87.82920 30589 ft 465 kts 297°
2026-05-08 18:15 47.72978 -87.87221 30337 ft 470 kts 297°
2026-05-08 18:15 47.74472 -87.91548 30157 ft 473 kts 297°
2026-05-08 18:16 47.77476 -88.00284 30021 ft 478 kts 296°
2026-05-08 18:16 47.80497 -88.09106 29989 ft 477 kts 296°
2026-05-08 18:17 47.83483 -88.17851 29997 ft 477 kts 296°
2026-05-08 18:17 47.86483 -88.26664 29989 ft 477 kts 296°
2026-05-08 18:18 47.89475 -88.35478 29996 ft 477 kts 296°
2026-05-08 18:18 47.92465 -88.44319 29991 ft 477 kts 296°
2026-05-08 18:19 47.95422 -88.53095 29994 ft 477 kts 296°
2026-05-08 18:19 47.98395 -88.61956 29992 ft 477 kts 296°
2026-05-08 18:20 48.01361 -88.70822 29995 ft 477 kts 296°
2026-05-08 18:20 48.04320 -88.79696 29992 ft 477 kts 296°
2026-05-08 18:21 48.07274 -88.88580 29994 ft 477 kts 296°
2026-05-08 18:21 48.10199 -88.97409 29992 ft 477 kts 296°
2026-05-08 18:22 48.13140 -89.06320 29994 ft 477 kts 296°
2026-05-08 18:22 48.16070 -89.15234 29992 ft 477 kts 296°
2026-05-08 18:23 48.18991 -89.24152 29994 ft 477 kts 296°
2026-05-08 18:23 48.21891 -89.33032 29993 ft 477 kts 296°
2026-05-08 18:24 48.24828 -89.41947 29992 ft 477 kts 295°
2026-05-08 18:24 48.27521 -89.51047 29994 ft 477 kts 293°
2026-05-08 18:25 48.30169 -89.60184 29993 ft 477 kts 293°
2026-05-08 18:25 48.32796 -89.69266 29993 ft 477 kts 293°
2026-05-08 18:26 48.35434 -89.78410 29993 ft 477 kts 293°
2026-05-08 18:26 48.38069 -89.87572 29993 ft 477 kts 293°
2026-05-08 18:27 48.39807 -89.93642 29992 ft 477 kts 293°
2026-05-08 18:27 48.43296 -90.05853 29994 ft 477 kts 292°
2026-05-08 18:28 48.45904 -90.15034 29994 ft 477 kts 292°
2026-05-08 18:28 48.48507 -90.24230 29992 ft 477 kts 292°
2026-05-08 18:29 48.51104 -90.33439 29995 ft 477 kts 292°
2026-05-08 18:29 48.53694 -90.42651 29992 ft 477 kts 292°
2026-05-08 18:30 48.56259 -90.51812 29993 ft 477 kts 292°
2026-05-08 18:30 48.58829 -90.61029 29994 ft 477 kts 292°
2026-05-08 18:31 48.61396 -90.70274 29992 ft 477 kts 292°
2026-05-08 18:31 48.63954 -90.79523 29994 ft 477 kts 292°
2026-05-08 18:32 48.66489 -90.88724 29992 ft 477 kts 292°
2026-05-08 18:32 48.69032 -90.97988 29994 ft 477 kts 292°
2026-05-08 18:33 48.71571 -91.07268 29993 ft 477 kts 292°
2026-05-08 18:33 48.74080 -91.16476 29994 ft 477 kts 292°
2026-05-08 18:34 48.74847 -91.19304 30505 ft 314 kts 289°
2026-05-08 18:34 48.75833 -91.22485 29522 ft 353 kts 298°
2026-05-08 18:34 48.77240 -91.25645 29315 ft 366 kts 307°
2026-05-08 18:34 48.78965 -91.28445 29398 ft 371 kts 315°
2026-05-08 18:35 48.80699 -91.31352 29561 ft 372 kts 303°
2026-05-08 18:35 48.81939 -91.34794 29729 ft 373 kts 289°
2026-05-08 18:35 48.82646 -91.38563 29882 ft 372 kts 280°
2026-05-08 18:35 48.83136 -91.42432 30003 ft 374 kts 279°
2026-05-08 18:36 48.83644 -91.46306 30112 ft 375 kts 281°
2026-05-08 18:36 48.84247 -91.50185 30073 ft 382 kts 283°
2026-05-08 18:36 48.85684 -91.58013 30020 ft 392 kts 285°
2026-05-08 18:37 48.87420 -91.65969 30010 ft 402 kts 291°
2026-05-08 18:37 48.89507 -91.73935 30005 ft 410 kts 291°
2026-05-08 18:38 48.91662 -91.82070 30001 ft 420 kts 291°
2026-05-08 18:38 48.93851 -91.90353 29997 ft 428 kts 291°
2026-05-08 18:39 48.96073 -91.98815 30003 ft 433 kts 291°
2026-05-08 18:39 48.98313 -92.07390 29999 ft 439 kts 291°
2026-05-08 18:40 49.00584 -92.16105 30002 ft 447 kts 291°
2026-05-08 18:40 49.02889 -92.24971 30000 ft 454 kts 291°
2026-05-08 18:41 49.05209 -92.33925 30000 ft 460 kts 291°
2026-05-08 18:41 49.07562 -92.43052 30001 ft 465 kts 291°
2026-05-08 18:42 49.09932 -92.52286 29998 ft 470 kts 291°
2026-05-08 18:42 49.12315 -92.61607 30001 ft 474 kts 291°
2026-05-08 18:43 49.13595 -92.66614 30656 ft 309 kts 291°
2026-05-08 18:43 49.14484 -92.69591 29834 ft 323 kts 296°
2026-05-08 18:43 49.15504 -92.72828 29059 ft 349 kts 299°
2026-05-08 18:43 49.16864 -92.75916 29246 ft 355 kts 305°
2026-05-08 18:44 49.18212 -92.79195 28976 ft 374 kts 296°
2026-05-08 18:44 49.19261 -92.82885 29094 ft 382 kts 291°
2026-05-08 18:44 49.20200 -92.86703 29211 ft 386 kts 289°
2026-05-08 18:44 49.20927 -92.90066 30419 ft 395 kts 289°
2026-05-08 18:45 49.21689 -92.94027 30308 ft 388 kts 288°
2026-05-08 18:45 49.22417 -92.97977 30192 ft 387 kts 288°
2026-05-08 18:45 49.23876 -93.05955 29989 ft 390 kts 288°
2026-05-08 18:46 49.25524 -93.13847 29769 ft 390 kts 292°
2026-05-08 18:46 49.27427 -93.21607 29570 ft 388 kts 293°
2026-05-08 18:47 49.28386 -93.25473 29468 ft 389 kts 292°
2026-05-08 18:47 49.29335 -93.29292 29475 ft 389 kts 292°
2026-05-08 18:47 49.30307 -93.33219 29619 ft 390 kts 292°
2026-05-08 18:47 49.31256 -93.37055 29697 ft 390 kts 292°
2026-05-08 18:48 49.33170 -93.44822 29715 ft 390 kts 292°
2026-05-08 18:48 49.35075 -93.52582 29707 ft 389 kts 292°
2026-05-08 18:49 49.36982 -93.60381 29707 ft 391 kts 292°
2026-05-08 18:49 49.38876 -93.68143 29708 ft 391 kts 292°
2026-05-08 18:50 49.40773 -93.75953 29719 ft 391 kts 292°
2026-05-08 18:50 49.42670 -93.83786 29709 ft 391 kts 292°
2026-05-08 18:51 49.44558 -93.91616 29718 ft 391 kts 292°
2026-05-08 18:51 49.46414 -93.99403 29718 ft 390 kts 290°
2026-05-08 18:52 49.46989 -94.03492 29702 ft 394 kts 279°
2026-05-08 18:52 49.47025 -94.07736 29714 ft 400 kts 269°
2026-05-08 18:52 49.46513 -94.11963 29728 ft 407 kts 258°
2026-05-08 18:52 49.45464 -94.16039 29725 ft 414 kts 249°
2026-05-08 18:53 49.43118 -94.24055 29724 ft 407 kts 259°
2026-05-08 18:53 49.42634 -94.28237 28626 ft 403 kts 266°
2026-05-08 18:53 49.42723 -94.32560 28719 ft 408 kts 277°
2026-05-08 18:54 49.43346 -94.36832 28825 ft 413 kts 288°
2026-05-08 18:54 49.44198 -94.41073 28938 ft 417 kts 282°
2026-05-08 18:54 49.44826 -94.50070 28684 ft 436 kts 272°
2026-05-08 18:55 49.45374 -94.59373 28608 ft 310 kts 277°
2026-05-08 18:55 49.45710 -94.62720 27763 ft 325 kts 279°
2026-05-08 18:55 49.46117 -94.66160 27504 ft 330 kts 280°
2026-05-08 18:56 49.46552 -94.69624 27614 ft 338 kts 281°
2026-05-08 18:56 49.47014 -94.73208 27743 ft 346 kts 281°
2026-05-08 18:56 49.47491 -94.76874 27877 ft 353 kts 281°
2026-05-08 18:56 49.47981 -94.80611 27981 ft 361 kts 281°
2026-05-08 18:57 49.48417 -94.84459 27991 ft 371 kts 276°
2026-05-08 18:57 49.48557 -94.87129 27629 ft 381 kts 273°
2026-05-08 18:57 49.48699 -94.92560 26872 ft 378 kts 271°
2026-05-08 18:57 49.48760 -94.96579 26430 ft 372 kts 271°
2026-05-08 18:58 49.48814 -95.00596 24909 ft 394 kts 271°
2026-05-08 18:58 49.48939 -95.04924 23677 ft 413 kts 276°
2026-05-08 18:58 49.49249 -95.09314 23129 ft 410 kts 275°
2026-05-08 18:58 49.49557 -95.13644 22607 ft 406 kts 276°
2026-05-08 18:59 49.49880 -95.17947 22112 ft 403 kts 276°
2026-05-08 18:59 49.50200 -95.22211 21752 ft 400 kts 276°
2026-05-08 18:59 49.50514 -95.26434 21160 ft 396 kts 276°
2026-05-08 18:59 49.50824 -95.30623 20689 ft 392 kts 276°
2026-05-08 19:00 49.51028 -95.33371 20370 ft 390 kts 276°
2026-05-08 19:00 49.51330 -95.37505 19900 ft 387 kts 276°
2026-05-08 19:00 49.51725 -95.42921 19293 ft 382 kts 276°
2026-05-08 19:00 49.52019 -95.46963 18851 ft 379 kts 276°
2026-05-08 19:01 49.52308 -95.50985 18418 ft 376 kts 276°
2026-05-08 19:01 49.52596 -95.54969 17995 ft 373 kts 276°
2026-05-08 19:01 49.52876 -95.58923 17565 ft 370 kts 276°
2026-05-08 19:01 49.53156 -95.62829 17110 ft 362 kts 276°
2026-05-08 19:02 49.53333 -95.65350 16877 ft 356 kts 276°
2026-05-08 19:02 49.53597 -95.69089 16532 ft 347 kts 276°
2026-05-08 19:02 49.53852 -95.72741 16183 ft 339 kts 276°
2026-05-08 19:02 49.54134 -95.76308 15838 ft 332 kts 279°
2026-05-08 19:03 49.54632 -95.79746 15497 ft 326 kts 284°
2026-05-08 19:03 49.55327 -95.83042 15080 ft 323 kts 292°
2026-05-08 19:03 49.56269 -95.86164 14662 ft 320 kts 295°
2026-05-08 19:03 49.57155 -95.89305 14239 ft 318 kts 292°
2026-05-08 19:04 49.58000 -95.92439 13851 ft 316 kts 292°
2026-05-08 19:04 49.58826 -95.95523 13605 ft 314 kts 292°
2026-05-08 19:04 49.59652 -95.98623 13340 ft 313 kts 292°
2026-05-08 19:04 49.60476 -96.01720 13081 ft 311 kts 292°
2026-05-08 19:05 49.61298 -96.04801 12844 ft 310 kts 292°
2026-05-08 19:05 49.62111 -96.07864 12595 ft 309 kts 291°
2026-05-08 19:05 49.62923 -96.10922 12323 ft 307 kts 292°
2026-05-08 19:05 49.63729 -96.13962 12004 ft 305 kts 291°
2026-05-08 19:06 49.64530 -96.16982 11698 ft 304 kts 291°
2026-05-08 19:06 49.65327 -96.19994 11402 ft 302 kts 291°
2026-05-08 19:06 49.66106 -96.22946 11108 ft 300 kts 291°
2026-05-08 19:06 49.66892 -96.25927 10811 ft 299 kts 291°
2026-05-08 19:07 49.67675 -96.28889 10524 ft 297 kts 291°
2026-05-08 19:07 49.68449 -96.31830 10342 ft 292 kts 291°
2026-05-08 19:07 49.69204 -96.34697 10270 ft 284 kts 291°
2026-05-08 19:07 49.69933 -96.37477 10230 ft 275 kts 291°
2026-05-08 19:08 49.70639 -96.40170 10222 ft 266 kts 291°
2026-05-08 19:08 49.71323 -96.42773 10226 ft 257 kts 291°
2026-05-08 19:08 49.71983 -96.45300 10219 ft 250 kts 291°
2026-05-08 19:08 49.72669 -96.47917 10269 ft 274 kts 291°
2026-05-08 19:09 49.73292 -96.50760 10303 ft 294 kts 282°
2026-05-08 19:09 49.73625 -96.53908 10317 ft 297 kts 277°
2026-05-08 19:09 49.73813 -96.57041 10197 ft 287 kts 271°
2026-05-08 19:09 49.73834 -96.60072 9998 ft 278 kts 270°
2026-05-08 19:10 49.73844 -96.63027 9802 ft 272 kts 269°
2026-05-08 19:10 49.73840 -96.65910 9607 ft 265 kts 269°
2026-05-08 19:10 49.73835 -96.68733 9421 ft 261 kts 269°
2026-05-08 19:10 49.73830 -96.71511 9244 ft 262 kts 269°
2026-05-08 19:11 49.73822 -96.74334 9076 ft 262 kts 269°
2026-05-08 19:11 49.73817 -96.77142 8631 ft 268 kts 269°
2026-05-08 19:11 49.73810 -96.80060 8095 ft 274 kts 269°
2026-05-08 19:11 49.73800 -96.83001 7559 ft 279 kts 269°
2026-05-08 19:12 49.73792 -96.86027 7035 ft 283 kts 269°
2026-05-08 19:12 49.73781 -96.88992 6961 ft 269 kts 269°
2026-05-08 19:12 49.73772 -96.91822 6806 ft 259 kts 269°
2026-05-08 19:12 49.73784 -96.94563 6666 ft 250 kts 269°
2026-05-08 19:13 49.73749 -96.97222 6386 ft 249 kts 268°
2026-05-08 19:13 49.73705 -96.99863 6196 ft 247 kts 268°
2026-05-08 19:13 49.73662 -97.02462 6062 ft 238 kts 268°
2026-05-08 19:13 49.73621 -97.04982 5893 ft 232 kts 268°
2026-05-08 19:14 49.73580 -97.07457 5629 ft 230 kts 268°
2026-05-08 19:14 49.73539 -97.09953 5297 ft 232 kts 268°
2026-05-08 19:14 49.73433 -97.12429 5010 ft 231 kts 255°
2026-05-08 19:14 49.72633 -97.14521 4697 ft 229 kts 220°
2026-05-08 19:15 49.71199 -97.15494 4422 ft 227 kts 189°
2026-05-08 19:15 49.69701 -97.15846 4364 ft 213 kts 188°
2026-05-08 19:15 49.68273 -97.15762 4211 ft 202 kts 169°
2026-05-08 19:15 49.66926 -97.15325 3987 ft 195 kts 167°
2026-05-08 19:16 49.65613 -97.14811 3675 ft 195 kts 162°
2026-05-08 19:16 49.64313 -97.14306 3362 ft 192 kts 183°
2026-05-08 19:16 49.63020 -97.15120 3307 ft 212 kts 222°
2026-05-08 19:16 49.62352 -97.16991 3256 ft 196 kts 263°
2026-05-08 19:17 49.62656 -97.18949 3230 ft 190 kts 306°
2026-05-08 19:17 49.63689 -97.20207 3262 ft 193 kts 328°
2026-05-08 19:17 49.64832 -97.21251 3265 ft 194 kts 326°
2026-05-08 19:17 49.65826 -97.22631 3257 ft 192 kts 317°
2026-05-08 19:18 49.66856 -97.23949 3250 ft 193 kts 321°
2026-05-08 19:18 49.67922 -97.25205 3243 ft 193 kts 322°
2026-05-08 19:18 49.68999 -97.26437 3237 ft 192 kts 323°
2026-05-08 19:18 49.70132 -97.27538 3244 ft 193 kts 329°
2026-05-08 19:19 49.71353 -97.28370 3235 ft 194 kts 351°
2026-05-08 19:19 49.72702 -97.28368 3251 ft 195 kts
2026-05-08 19:19 49.74041 -97.28050 3247 ft 195 kts 10°
2026-05-08 19:19 49.75344 -97.27583 3238 ft 195 kts 14°
2026-05-08 19:20 49.76656 -97.27095 3244 ft 194 kts 11°
2026-05-08 19:20 49.77543 -97.26800 3219 ft 192 kts 12°
2026-05-08 19:20 49.79299 -97.26318 2974 ft 196 kts
2026-05-08 19:20 49.80664 -97.26108 2815 ft 193 kts
2026-05-08 19:21 49.81944 -97.25916 2622 ft 178 kts
2026-05-08 19:21 49.83171 -97.25697 2191 ft 177 kts
2026-05-08 19:21 49.84359 -97.25475 1970 ft 164 kts
2026-05-08 19:21 49.85436 -97.25171 1695 ft 157 kts 10°
2026-05-08 19:22 49.86517 -97.24906 1310 ft 157 kts
2026-05-08 19:22 49.87554 -97.24653 1190 ft 148 kts
2026-05-08 19:22 49.88576 -97.24397 1000 ft 148 kts
2026-05-08 19:22 49.89593 -97.24172 851 ft 150 kts
2026-05-08 19:23 49.90583 -97.23940 786 ft 132 kts
2026-05-08 19:23 49.91375 -97.23762 779 ft 99 kts
2026-05-08 19:23 49.91962 -97.23616 777 ft 73 kts
2026-05-08 19:23 49.92314 -97.23537 780 ft 16 kts
2026-05-08 19:24 49.92432 -97.23489 779 ft 19 kts 34°
2026-05-08 19:24 49.92481 -97.23341 783 ft 1 kts 77°
2026-05-08 19:24 49.92481 -97.23337 783 ft 0 kts 79°
2026-05-08 19:24 49.92481 -97.23336 783 ft 2 kts 80°
2026-05-08 19:25 49.92452 -97.23244 782 ft 15 kts 130°
2026-05-08 19:25 49.92356 -97.23218 781 ft 16 kts 192°
2026-05-08 19:25 49.92240 -97.23242 779 ft 18 kts 186°
2026-05-08 19:25 49.92099 -97.23273 776 ft 23 kts 190°
2026-05-08 19:26 49.91920 -97.23317 776 ft 27 kts 188°
2026-05-08 19:26 49.91730 -97.23359 777 ft 30 kts 187°
2026-05-08 19:26 49.91522 -97.23406 784 ft 30 kts 188°
2026-05-08 19:26 49.91316 -97.23453 785 ft 30 kts 185°
2026-05-08 19:27 49.91124 -97.23498 783 ft 27 kts 185°
2026-05-08 19:27 49.90942 -97.23414 780 ft 22 kts 156°
2026-05-08 19:27 49.90863 -97.23297 781 ft 17 kts 92°
2026-05-08 19:27 49.90879 -97.23111 781 ft 18 kts 80°
2026-05-08 19:28 49.90887 -97.22914 782 ft 19 kts 94°
2026-05-08 19:28 49.90836 -97.22734 783 ft 19 kts 123°
2026-05-08 19:28 49.90765 -97.22669 781 ft 3 kts 200°
2026-05-08 19:28 49.90742 -97.22691 781 ft 4 kts 218°
2026-05-08 19:29 49.90721 -97.22733 781 ft 6 kts 242°
2026-05-08 19:29 49.90705 -97.22796 781 ft 7 kts 249°
2026-05-08 19:29 49.90662 -97.22860 782 ft 11 kts 200°
2026-05-08 19:29 49.90582 -97.22861 783 ft 12 kts 165°
2026-05-08 19:30 49.90537 -97.22806 784 ft 6 kts 113°
2026-05-08 19:30 49.90535 -97.22788 784 ft 0 kts 101°